Weather History for Shawnee, OK

Change the Weather History Date:

Friday, September 5, 2014

  Actual Average (KTIK) Record (KTIK)
Temperature  
Mean Temperature 86 °F -  
Max Temperature 98 °F 86 °F 105 °F (1998)
Min Temperature 73 °F 66 °F 55 °F (2011)
Cooling Degree Days 20    
Growing Degree Days 36 (Base 50)    
Moisture  
Dew Point 72 °F    
Average Humidity 66    
Maximum Humidity 100    
Minimum Humidity 39    
Precipitation  
Precipitation 0.03 in - - ()
Sea Level Pressure  
Sea Level Pressure 30.07 in    
Wind  
Wind Speed 6 mph (SSW)    
Max Wind Speed 15 mph    
Max Gust Speed -    
Visibility 10 miles    
Events Rain    
Averages and records for this station are not official NWS values.
T = Trace of Precipitation, MM = Missing Value Source: NWS Daily Summary

Daily Weather History Graph

Daily Weather History Graph

Search for Another Location

Airport:

Trip Planner

Search our weather history database for the weather conditions in past years. The results will help you decide how hot, cold, wet, or windy it might be!

Date:

Astronomy

Sep. 05, 2014 Rise Set
Actual Time 7:03 AM CDT 7:49 PM CDT
Civil Twilight 6:37 AM CDT 8:14 PM CDT
Nautical Twilight 6:06 AM CDT 8:45 PM CDT
Astronomical Twilight 5:35 AM CDT 9:16 PM CDT
Moon 5:14 PM CDT (9/5) 3:04 AM CDT (9/5)
Length of Visible Light 13h 37m
Length of Day
12h 45m
Waxing Gibbous, 84% of the Moon is Illuminated
Sep 5
Waxing Gibbous
Sep 8
Full
Sep 15
Last Quarter
Sep 24
New
Oct 1
First Quarter

Hourly Weather History & Observations

Time (CDT) Temp. Heat Index Dew Point Humidity Pressure Visibility Wind Dir Wind Speed Gust Speed Precip Events Conditions
12:15 AM 82.4 °F 87.2 °F 71.6 °F 70% 30.04 in 10.0 mi South 5.8 mph - N/A   Clear
12:35 AM 80.6 °F 83.9 °F 69.8 °F 70% 30.04 in 10.0 mi South 6.9 mph - N/A   Clear
12:55 AM 80.6 °F 84.6 °F 71.6 °F 74% 30.05 in 10.0 mi South 5.8 mph - N/A   Clear
1:15 AM 80.6 °F 84.6 °F 71.6 °F 74% 30.05 in 10.0 mi South 5.8 mph - N/A   Clear
1:35 AM 80.6 °F 84.6 °F 71.6 °F 74% 30.05 in 10.0 mi South 5.8 mph - N/A   Clear
1:55 AM 80.6 °F 84.6 °F 71.6 °F 74% 30.06 in 10.0 mi South 6.9 mph - N/A   Clear
2:15 AM 80.6 °F 84.6 °F 71.6 °F 74% 30.06 in 10.0 mi South 5.8 mph - N/A   Clear
2:35 AM 80.6 °F 84.6 °F 71.6 °F 74% 30.05 in 10.0 mi South 5.8 mph - N/A   Clear
2:55 AM 80.6 °F 84.6 °F 71.6 °F 74% 30.06 in 10.0 mi South 5.8 mph - N/A   Clear
3:15 AM 80.6 °F 84.6 °F 71.6 °F 74% 30.06 in 10.0 mi South 5.8 mph - N/A   Clear
3:35 AM 80.6 °F 84.6 °F 71.6 °F 74% 30.06 in 10.0 mi South 5.8 mph - N/A   Clear
3:55 AM 78.8 °F - 71.6 °F 78% 30.06 in 10.0 mi South 5.8 mph - N/A   Clear
4:15 AM 78.8 °F - 71.6 °F 78% 30.06 in 10.0 mi South 4.6 mph - N/A   Clear
4:35 AM 78.8 °F - 71.6 °F 78% 30.06 in 10.0 mi South 4.6 mph - N/A   Clear
4:55 AM 78.8 °F - 73.4 °F 83% 30.07 in 10.0 mi South 4.6 mph - N/A   Clear
5:15 AM 78.8 °F - 73.4 °F 83% 30.07 in 10.0 mi South 4.6 mph - N/A   Scattered Clouds
5:35 AM 77.0 °F - 71.6 °F 83% 30.07 in 10.0 mi South 3.5 mph - N/A   Scattered Clouds
5:55 AM 77.0 °F - 73.4 °F 89% 30.08 in 10.0 mi South 4.6 mph - N/A   Scattered Clouds
6:15 AM 77.0 °F - 71.6 °F 83% 30.09 in 10.0 mi Calm Calm - N/A   Clear
6:35 AM 77.0 °F - 73.4 °F 89% 30.09 in 10.0 mi South 3.5 mph - N/A   Clear
6:55 AM 77.0 °F - 73.4 °F 89% 30.09 in 10.0 mi South 4.6 mph - N/A   Clear
7:15 AM 77.0 °F - 73.4 °F 89% 30.10 in 10.0 mi South 3.5 mph - N/A   Clear
7:35 AM 77.0 °F - 73.4 °F 89% 30.11 in 10.0 mi South 3.5 mph - N/A   Clear
7:55 AM 77.0 °F - 73.4 °F 89% 30.11 in 10.0 mi South 5.8 mph - N/A   Clear
8:15 AM 78.8 °F - 73.4 °F 83% 30.12 in 10.0 mi SSW 5.8 mph - N/A   Clear
8:35 AM 80.6 °F 85.4 °F 73.4 °F 79% 30.12 in 10.0 mi SSW 8.1 mph - N/A   Clear
9:15 AM - - - N/A% - - North - - N/A   Unknown
9:35 AM 86.0 °F 93.4 °F 73.4 °F 66% 30.12 in 10.0 mi SW 10.4 mph - 0.03 in   Clear
9:55 AM 86.0 °F 93.4 °F 73.4 °F 66% 30.12 in 10.0 mi SW 8.1 mph - 0.03 in   Clear
10:15 AM 87.8 °F 95.6 °F 73.4 °F 62% 30.12 in 10.0 mi WSW 10.4 mph - N/A   Clear
10:35 AM 89.6 °F 98.2 °F 73.4 °F 59% 30.13 in 10.0 mi SW 9.2 mph - N/A   Clear
10:55 AM 91.4 °F 100.1 °F 73.4 °F 55% 30.13 in 10.0 mi WSW 9.2 mph - N/A   Clear
11:15 AM 91.4 °F 100.1 °F 73.4 °F 55% 30.13 in 10.0 mi WSW 9.2 mph - N/A   Clear
11:35 AM 91.4 °F 98.4 °F 71.6 °F 52% 30.12 in 10.0 mi WSW 9.2 mph - N/A   Clear
11:55 AM 91.4 °F 98.4 °F 71.6 °F 52% 30.12 in 10.0 mi WSW 6.9 mph - N/A   Clear
12:15 PM 91.4 °F 98.4 °F 71.6 °F 52% 30.12 in 10.0 mi WSW 6.9 mph - N/A   Clear
12:35 PM 95.0 °F 103.2 °F 71.6 °F 47% 30.11 in 10.0 mi SSW 9.2 mph - N/A   Clear
12:55 PM 95.0 °F 103.2 °F 71.6 °F 47% 30.10 in 10.0 mi SSW 10.4 mph - N/A   Clear
1:15 PM 95.0 °F 103.2 °F 71.6 °F 47% 30.10 in 10.0 mi SW 8.1 mph - N/A   Clear
1:35 PM 96.8 °F 105.1 °F 71.6 °F 44% 30.09 in 10.0 mi South 9.2 mph - N/A   Clear
1:55 PM 96.8 °F 105.1 °F 71.6 °F 44% 30.09 in 10.0 mi South 8.1 mph - N/A   Clear
2:15 PM 96.8 °F 105.1 °F 71.6 °F 44% 30.08 in 10.0 mi SW 6.9 mph - N/A   Clear
2:35 PM 96.8 °F 103.1 °F 69.8 °F 41% 30.07 in 10.0 mi SW 6.9 mph - N/A   Scattered Clouds
2:55 PM 96.8 °F 103.1 °F 69.8 °F 41% 30.07 in 10.0 mi SW 4.6 mph - N/A   Scattered Clouds
3:15 PM 96.8 °F 105.1 °F 71.6 °F 44% 30.06 in 10.0 mi Calm Calm - N/A   Scattered Clouds
3:35 PM 96.8 °F 103.1 °F 69.8 °F 41% 30.04 in 10.0 mi South 4.6 mph - N/A   Scattered Clouds
3:55 PM 98.6 °F 105.5 °F 69.8 °F 39% 30.04 in 10.0 mi Calm Calm - N/A   Scattered Clouds
4:15 PM 96.8 °F 101.8 °F 68.0 °F 39% 30.02 in 10.0 mi SSE 4.6 mph - N/A   Scattered Clouds
4:35 PM 96.8 °F 103.1 °F 69.8 °F 41% 30.02 in 10.0 mi South 4.6 mph - N/A   Scattered Clouds
4:55 PM 96.8 °F 103.1 °F 69.8 °F 41% 30.01 in 10.0 mi SW 5.8 mph - N/A   Clear
5:15 PM 98.6 °F 105.5 °F 69.8 °F 39% 30.00 in 10.0 mi South 8.1 mph - N/A   Clear
5:35 PM 96.8 °F 103.1 °F 69.8 °F 41% 30.00 in 10.0 mi South 5.8 mph - N/A   Clear
5:55 PM 96.8 °F 103.1 °F 69.8 °F 41% 30.00 in 10.0 mi South 4.6 mph - N/A   Scattered Clouds
6:15 PM 95.0 °F 99.5 °F 68.0 °F 41% 30.01 in 10.0 mi South 5.8 mph - N/A   Clear
6:35 PM 95.0 °F 99.5 °F 68.0 °F 41% 30.01 in 10.0 mi SSE 5.8 mph - N/A   Clear
6:55 PM 91.4 °F 95.4 °F 68.0 °F 46% 30.01 in 10.0 mi SE 4.6 mph - N/A   Clear
7:15 PM 91.4 °F 96.8 °F 69.8 °F 49% 30.02 in 10.0 mi SE 4.6 mph - N/A   Clear
7:35 PM 91.4 °F 96.8 °F 69.8 °F 49% 30.02 in 10.0 mi SSE 3.5 mph - N/A   Scattered Clouds
7:55 PM 91.4 °F 96.8 °F 69.8 °F 49% 30.02 in 10.0 mi Calm Calm - N/A   Scattered Clouds
8:15 PM 86.0 °F 91.8 °F 71.6 °F 62% 30.05 in 10.0 mi NW 8.1 mph - N/A   Overcast
8:35 PM 78.8 °F - 75.2 °F 89% 30.06 in 10.0 mi North 15.0 mph - N/A Rain Light Rain
9:15 PM 78.8 °F - 77.0 °F 94% 30.09 in 10.0 mi North 10.4 mph - N/A Rain Light Rain
9:35 PM 78.8 °F - 77.0 °F 94% 30.10 in 10.0 mi North 8.1 mph - N/A   Clear
9:55 PM 78.8 °F - 77.0 °F 94% 30.11 in 10.0 mi North 9.2 mph - N/A   Clear
10:15 PM 77.0 °F - 73.4 °F 89% 30.11 in 10.0 mi NNE 10.4 mph - N/A   Clear
10:35 PM 77.0 °F - 73.4 °F 89% 30.12 in 10.0 mi NNE 8.1 mph - N/A   Clear
10:55 PM 77.0 °F - 73.4 °F 89% 30.13 in 10.0 mi North 8.1 mph - N/A   Clear
11:15 PM 73.4 °F - 73.4 °F 100% 30.14 in 10.0 mi North 8.1 mph - N/A   Clear
11:55 PM 73.4 °F - 71.6 °F 94% 30.14 in 10.0 mi North 8.1 mph - N/A   Overcast